,,Stat6,,Stat2,,Stat8,,Stat9,,Stat10,,Wind1,,Wind1,
time,status,PA1M_AVG,status,PR1M_SUM,status,RH1M_AVG,status,SR1M_AVG,status,TA1M_AVG,status,W1dAve1m,status,W1sAve1m,
2005-04-29, 00:00:00,VALID,917.936,VALID,0,VALID,100,VALID,0.0169808,VALID,20.8892,VALID,136,VALID,1.45331,
2005-04-29, 00:01:00,VALID,917.959,VALID,0,VALID,100,VALID,0.0509425,VALID,20.8663,VALID,121,VALID,1.88583,
2005-04-29, 00:02:00,VALID,917.994,VALID,0,VALID,100,VALID,0.0509425,VALID,20.8763,VALID,106,VALID,1.35343,
2005-04-29, 00:03:00,VALID,918.025,VALID,0,VALID,100,VALID,0.0339617,VALID,20.876,VALID,117,VALID,1.2935,
2005-04-29, 00:04:00,VALID,918.052,VALID,0,VALID,100,VALID,0.0509425,VALID,20.8626,VALID,146,VALID,1.91178,
2005-04-29, 00:05:00,VALID,918.051,VALID,0,VALID,100,VALID,0.0339617,VALID,20.8564,VALID,163,VALID,1.2429,
2005-04-29, 00:06:00,VALID,918.039,VALID,0,VALID,100,VALID,-0.0679233,VALID,20.8709,VALID,164,VALID,0.929355,
2005-04-29, 00:07:00,VALID,918.067,VALID,0,VALID,100,VALID,-0.0169808,VALID,20.8413,VALID,121,VALID,1.64826,
2005-04-29, 00:08:00,VALID,918.007,VALID,0,VALID,99.5702,VALID,-0.0339617,VALID,20.8119,VALID,104,VALID,4.57363,
2005-04-29, 00:09:00,VALID,917.983,VALID,0,VALID,98.7503,VALID,-0.0169808,VALID,20.9059,VALID,70,VALID,3.08464,
2005-04-29, 00:10:00,VALID,917.987,VALID,0,VALID,97.2167,VALID,-0.0509425,VALID,21.0063,VALID,86,VALID,3.68787,
2005-04-29, 00:11:00,VALID,918.021,VALID,0,VALID,96.5415,VALID,-0.0509425,VALID,21.0776,VALID,92,VALID,2.21384,
2005-04-29, 00:12:00,VALID,918.01,VALID,0,VALID,96.8441,VALID,-0.0509425,VALID,21.0773,VALID,59,VALID,1.94985,
2005-04-29, 00:13:00,VALID,918.077,VALID,0,VALID,96.4639,VALID,0,VALID,21.0386,VALID,96,VALID,2.57369,
2005-04-29, 00:14:00,VALID,918.01,VALID,0,VALID,95.2699,VALID,-0.0339617,VALID,21.0523,VALID,93,VALID,3.932,
2005-04-29, 00:15:00,VALID,918.009,VALID,0,VALID,94.9939,VALID,0,VALID,21.146,VALID,49,VALID,3.96839,
2005-04-29, 00:16:00,VALID,918.047,VALID,0,VALID,95.2279,VALID,-0.0509425,VALID,21.1807,VALID,54,VALID,2.27089,
2005-04-29, 00:17:00,VALID,918.04,VALID,0,VALID,94.7371,VALID,0,VALID,21.1454,VALID,84,VALID,2.18069,
2005-04-29, 00:18:00,VALID,918.088,VALID,0,VALID,94.8884,VALID,-0.0849042,VALID,21.1263,VALID,83,VALID,2.82478,
2005-04-29, 00:19:00,VALID,918.096,VALID,0,VALID,93.9118,VALID,0,VALID,21.1166,VALID,84,VALID,4.262,
2005-04-29, 00:20:00,VALID,918.1,VALID,0,VALID,94.2068,VALID,0,VALID,21.1392,VALID,73,VALID,2.48323,
2005-04-29, 00:21:00,VALID,918.169,VALID,0,VALID,93.9881,VALID,-0.0169808,VALID,21.1169,VALID,119,VALID,3.40588,
2005-04-29, 00:22:00,VALID,918.082,VALID,0,VALID,93.2849,VALID,0,VALID,21.1026,VALID,75,VALID,4.09263,
2005-04-29, 00:23:00,VALID,918.095,VALID,0,VALID,93.847,VALID,0,VALID,21.1293,VALID,74,VALID,2.48864,
2005-04-29, 00:24:00,VALID,918.104,VALID,0,VALID,93.7618,VALID,-0.0509425,VALID,21.0873,VALID,84,VALID,3.80529,
2005-04-29, 00:25:00,VALID,918.084,VALID,0,VALID,93.9843,VALID,-0.0339617,VALID,21.0517,VALID,80,VALID,2.06879,
2005-04-29, 00:26:00,VALID,918.124,VALID,0,VALID,94.0059,VALID,-0.0509425,VALID,21.0294,VALID,110,VALID,2.23642,
2005-04-29, 00:27:00,VALID,918.099,VALID,0,VALID,93.7465,VALID,-0.0169808,VALID,21.0192,VALID,141,VALID,2.81362,
2005-04-29, 00:28:00,VALID,918.068,VALID,0,VALID,93.4451,VALID,-0.0339617,VALID,21.0063,VALID,92,VALID,3.54668,
2005-04-29, 00:29:00,VALID,918.055,VALID,0,VALID,93.2201,VALID,-0.0509425,VALID,21.0095,VALID,53,VALID,2.49981,
2005-04-29, 00:30:00,VALID,918.108,VALID,0,VALID,93.4782,VALID,-0.0169808,VALID,21.0321,VALID,120,VALID,1.52734,
2005-04-29, 00:31:00,VALID,918.131,VALID,0,VALID,93.3777,VALID,-0.0339617,VALID,21.0063,VALID,88,VALID,1.34896,
2005-04-29, 00:32:00,VALID,918.145,VALID,0,VALID,93.8686,VALID,-0.0849042,VALID,21.0036,VALID,94,VALID,0.738948,
2005-04-29, 00:33:00,VALID,918.15,VALID,0,VALID,94.4955,VALID,-0.0509425,VALID,20.971,VALID,43,VALID,0.663504,
2005-04-29, 00:34:00,VALID,918.138,VALID,0,VALID,94.2284,VALID,-0.101885,VALID,20.9424,VALID,110,VALID,1.24447,
2005-04-29, 00:35:00,VALID,918.117,VALID,0,VALID,94.2615,VALID,-0.101885,VALID,20.936,VALID,310,VALID,0.78468,
2005-04-29, 00:36:00,VALID,918.124,VALID,0,VALID,94.7218,VALID,-0.0679233,VALID,20.9293,VALID,318,VALID,0.460029,
2005-04-29, 00:37:00,VALID,918.089,VALID,0,VALID,94.938,VALID,-0.0679233,VALID,20.894,VALID,250,VALID,1.22776,
2005-04-29, 00:38:00,VALID,918.046,VALID,0,VALID,94.8325,VALID,-0.0679233,VALID,20.8318,VALID,224,VALID,1.6511,
2005-04-29, 00:39:00,VALID,918.054,VALID,0,VALID,94.5692,VALID,-0.0849042,VALID,20.8453,VALID,234,VALID,1.67035,
2005-04-29, 00:40:00,VALID,918.082,VALID,0,VALID,95.1211,VALID,-0.0849042,VALID,20.8681,VALID,161,VALID,0.714311,
2005-04-29, 00:41:00,VALID,918.085,VALID,0,VALID,95.5789,VALID,-0.101885,VALID,20.8426,VALID,183,VALID,0.704268,
2005-04-29, 00:42:00,VALID,918.116,VALID,0,VALID,95.8841,VALID,-0.0679233,VALID,20.8035,VALID,167,VALID,1.39253,
2005-04-29, 00:43:00,VALID,918.095,VALID,0,VALID,95.4352,VALID,-0.0509425,VALID,20.7419,VALID,142,VALID,2.43626,
2005-04-29, 00:44:00,VALID,918.075,VALID,0,VALID,95.1351,VALID,-0.101885,VALID,20.7064,VALID,194,VALID,1.78516,
2005-04-29, 00:45:00,VALID,918.075,VALID,0,VALID,95.2559,VALID,-0.0509425,VALID,20.7158,VALID,231,VALID,1.26908,
2005-04-29, 00:46:00,VALID,918.151,VALID,0,VALID,95.4822,VALID,-0.0849042,VALID,20.7061,VALID,172,VALID,1.97602,
2005-04-29, 00:47:00,VALID,918.158,VALID,0,VALID,95.4568,VALID,-0.0679233,VALID,20.6743,VALID,181,VALID,1.94722,
2005-04-29, 00:48:00,VALID,918.155,VALID,0,VALID,95.5039,VALID,-0.0849042,VALID,20.6714,VALID,174,VALID,1.4032,
2005-04-29, 00:49:00,VALID,918.181,VALID,0,VALID,95.6819,VALID,-0.0849042,VALID,20.6552,VALID,161,VALID,1.21271,
2005-04-29, 00:50:00,VALID,918.196,VALID,0,VALID,95.6412,VALID,-0.101885,VALID,20.6458,VALID,202,VALID,1.31473,
2005-04-29, 00:51:00,VALID,918.198,VALID,0,VALID,95.6997,VALID,-0.0509425,VALID,20.6388,VALID,186,VALID,1.51563,
2005-04-29, 00:52:00,VALID,918.185,VALID,0,VALID,95.2979,VALID,-0.0679233,VALID,20.6264,VALID,176,VALID,1.86309,
2005-04-29, 00:53:00,VALID,918.172,VALID,0,VALID,95.4314,VALID,-0.0849042,VALID,20.6229,VALID,178,VALID,2.20241,
2005-04-29, 00:54:00,VALID,918.165,VALID,0,VALID,95.5852,VALID,-0.0509425,VALID,20.6092,VALID,156,VALID,1.83594,
2005-04-29, 00:55:00,VALID,918.156,VALID,0,VALID,95.6221,VALID,-0.0679233,VALID,20.5938,VALID,161,VALID,1.89134,
2005-04-29, 00:56:00,VALID,918.143,VALID,0,VALID,95.2483,VALID,-0.0509425,VALID,20.5645,VALID,138,VALID,2.33926,
2005-04-29, 00:57:00,VALID,918.13,VALID,0,VALID,95.1783,VALID,-0.0679233,VALID,20.5578,VALID,143,VALID,1.90473,
2005-04-29, 00:58:00,VALID,918.105,VALID,0,VALID,95.233,VALID,-0.0509425,VALID,20.5519,VALID,157,VALID,1.03663,
2005-04-29, 00:59:00,VALID,918.109,VALID,0,VALID,95.3449,VALID,-0.0169808,VALID,20.5223,VALID,107,VALID,1.48864,
2005-04-29, 01:00:00,VALID,918.053,VALID,0.2,VALID,94.8846,VALID,-0.0169808,VALID,20.5066,VALID,132,VALID,2.04724,
2005-04-29, 01:01:00,VALID,917.987,VALID,0,VALID,95.3564,VALID,-0.0509425,VALID,20.523,VALID,163,VALID,0.626817,
2005-04-29, 01:02:00,VALID,917.951,VALID,0,VALID,95.6781,VALID,-0.101885,VALID,20.4867,VALID,165,VALID,0.206032,
2005-04-29, 01:03:00,VALID,917.93,VALID,0,VALID,95.9388,VALID,-0.0849042,VALID,20.4681,VALID,173,VALID,0.472222,
2005-04-29, 01:04:00,VALID,917.898,VALID,0,VALID,95.3576,VALID,-0.0509425,VALID,20.4192,VALID,123,VALID,1.52548,
2005-04-29, 01:05:00,VALID,917.913,VALID,0,VALID,95.2788,VALID,-0.0339617,VALID,20.4063,VALID,125,VALID,1.23342,
2005-04-29, 01:06:00,VALID,917.903,VALID,0,VALID,95.0741,VALID,0.0339617,VALID,20.3918,VALID,78,VALID,1.80655,
2005-04-29, 01:07:00,VALID,917.869,VALID,0,VALID,94.203,VALID,0.0849042,VALID,20.4087,VALID,130,VALID,2.1436,
2005-04-29, 01:08:00,VALID,917.862,VALID,0,VALID,94.2412,VALID,0.0339617,VALID,20.4283,VALID,140,VALID,1.89367,
2005-04-29, 01:09:00,VALID,917.831,VALID,0,VALID,94.7549,VALID,0.0679233,VALID,20.4413,VALID,60,VALID,1.07706,
2005-04-29, 01:10:00,VALID,917.794,VALID,0,VALID,95.1427,VALID,0.0169808,VALID,20.4085,VALID,43,VALID,0.271984,
2005-04-29, 01:11:00,VALID,917.777,VALID,0,VALID,95.2521,VALID,0.0169808,VALID,20.3692,VALID,148,VALID,0.80625,
2005-04-29, 01:12:00,VALID,917.753,VALID,0.2,VALID,95.0397,VALID,0.0169808,VALID,20.3342,VALID,142,VALID,1.05833,
2005-04-29, 01:13:00,VALID,917.723,VALID,0,VALID,94.6277,VALID,0.0339617,VALID,20.3317,VALID,122,VALID,0.975991,
2005-04-29, 01:14:00,VALID,917.676,VALID,0,VALID,94.671,VALID,0,VALID,20.3379,VALID,166,VALID,2.14444,
2005-04-29, 01:15:00,VALID,917.656,VALID,0,VALID,94.6392,VALID,0.0169808,VALID,20.3344,VALID,142,VALID,1.8581,
2005-04-29, 01:16:00,VALID,917.639,VALID,0,VALID,94.7511,VALID,0.0509425,VALID,20.3282,VALID,137,VALID,1.35298,
2005-04-29, 01:17:00,VALID,917.573,VALID,0,VALID,95.0346,VALID,0.0339617,VALID,20.3183,VALID,115,VALID,0.343932,
2005-04-29, 01:18:00,VALID,917.543,VALID,0,VALID,95.3805,VALID,0,VALID,20.3185,VALID,90,VALID,0.192042,
2005-04-29, 01:19:00,VALID,917.492,VALID,0,VALID,95.3309,VALID,0.0169808,VALID,20.2895,VALID,188,VALID,1.11937,
2005-04-29, 01:20:00,VALID,917.461,VALID,0,VALID,95.0779,VALID,0.0509425,VALID,20.2502,VALID,171,VALID,1.76767,
2005-04-29, 01:21:00,VALID,917.423,VALID,0,VALID,95.2457,VALID,0.0169808,VALID,20.238,VALID,178,VALID,1.60826,
2005-04-29, 01:22:00,VALID,917.408,VALID,0,VALID,95.205,VALID,0,VALID,20.1961,VALID,180,VALID,1.60026,
2005-04-29, 01:23:00,VALID,917.388,VALID,0,VALID,95.2661,VALID,0.0169808,VALID,20.1797,VALID,151,VALID,0.661058,
2005-04-29, 01:24:00,VALID,917.37,VALID,0,VALID,95.5369,VALID,0.0339617,VALID,20.1799,VALID,140,VALID,0.933408,
2005-04-29, 01:25:00,VALID,917.353,VALID,0,VALID,95.3029,VALID,0.0169808,VALID,20.1576,VALID,171,VALID,1.3819,
2005-04-29, 01:26:00,VALID,917.322,VALID,0,VALID,95.0486,VALID,0,VALID,20.1307,VALID,182,VALID,2.4295,
2005-04-29, 01:27:00,VALID,917.313,VALID,0,VALID,94.9558,VALID,0,VALID,20.1474,VALID,168,VALID,1.41953,
2005-04-29, 01:28:00,VALID,917.293,VALID,0,VALID,95.3258,VALID,0.0339617,VALID,20.1409,VALID,198,VALID,0.933239,
2005-04-29, 01:29:00,VALID,917.247,VALID,0,VALID,95.7111,VALID,0.0169808,VALID,20.128,VALID,195,VALID,1.02477,
2005-04-29, 01:30:00,VALID,917.275,VALID,0,VALID,95.9756,VALID,0.0169808,VALID,20.0962,VALID,208,VALID,1.15547,
2005-04-29, 01:31:00,VALID,917.253,VALID,0,VALID,96.2249,VALID,0.0509425,VALID,20.0604,VALID,193,VALID,0.925249,
2005-04-29, 01:32:00,VALID,917.233,VALID,0.2,VALID,96.3609,VALID,0,VALID,20.0383,VALID,176,VALID,0.947049,
2005-04-29, 01:33:00,VALID,917.243,VALID,0,VALID,96.4588,VALID,0.0169808,VALID,20.0058,VALID,156,VALID,0.810724,
2005-04-29, 01:34:00,VALID,917.219,VALID,0,VALID,96.6038,VALID,0.0169808,VALID,19.9864,VALID,164,VALID,0.559896,
2005-04-29, 01:35:00,VALID,917.207,VALID,0,VALID,96.5389,VALID,-0.0169808,VALID,19.9608,VALID,190,VALID,0.835938,
2005-04-29, 01:36:00,VALID,917.181,VALID,0,VALID,96.3126,VALID,-0.0509425,VALID,19.9588,VALID,171,VALID,0.813058,
2005-04-29, 01:37:00,VALID,917.174,VALID,0,VALID,96.5428,VALID,-0.0849042,VALID,19.9621,VALID,204,VALID,0.415206,
2005-04-29, 01:38:00,VALID,917.146,VALID,0,VALID,96.6191,VALID,-0.0679233,VALID,19.9556,VALID,196,VALID,0.744978,
2005-04-29, 01:39:00,VALID,917.122,VALID,0,VALID,96.3762,VALID,-0.101885,VALID,19.9723,VALID,220,VALID,1.09546,
2005-04-29, 01:40:00,VALID,917.115,VALID,0,VALID,96.4499,VALID,-0.101885,VALID,20.0008,VALID,130,VALID,0.894886,
2005-04-29, 01:41:00,VALID,917.081,VALID,0,VALID,96.2007,VALID,-0.101885,VALID,20.0011,VALID,148,VALID,1.32478,
2005-04-29, 01:42:00,VALID,917.046,VALID,0,VALID,95.9616,VALID,-0.101885,VALID,20.011,VALID,163,VALID,1.01715,
2005-04-29, 01:43:00,VALID,917.02,VALID,0,VALID,96.0074,VALID,-0.101885,VALID,20.0304,VALID,190,VALID,0.952762,
2005-04-29, 01:44:00,VALID,917.032,VALID,0,VALID,95.9591,VALID,-0.101885,VALID,20.0528,VALID,134,VALID,1.09655,
2005-04-29, 01:45:00,VALID,917.034,VALID,0,VALID,96.1193,VALID,-0.118866,VALID,20.0528,VALID,101,VALID,0.805618,
2005-04-29, 01:46:00,VALID,917.019,VALID,0,VALID,96.2388,VALID,-0.101885,VALID,20.0301,VALID,144,VALID,0.914258,
2005-04-29, 01:47:00,VALID,917.003,VALID,0,VALID,96.3355,VALID,-0.101885,VALID,20.0175,VALID,175,VALID,1.23998,
2005-04-29, 01:48:00,VALID,916.981,VALID,0,VALID,96.408,VALID,-0.0509425,VALID,19.9976,VALID,153,VALID,1.44247,
2005-04-29, 01:49:00,VALID,916.951,VALID,0,VALID,96.1765,VALID,0,VALID,20.0068,VALID,174,VALID,1.36808,
2005-04-29, 01:50:00,VALID,916.923,VALID,0,VALID,95.968,VALID,-0.0169808,VALID,20.0324,VALID,140,VALID,1.69512,
2005-04-29, 01:51:00,VALID,916.908,VALID,0,VALID,95.8485,VALID,-0.0849042,VALID,20.0692,VALID,149,VALID,1.23228,
2005-04-29, 01:52:00,VALID,916.882,VALID,0,VALID,95.5573,VALID,-0.0849042,VALID,20.0952,VALID,156,VALID,1.76767,
2005-04-29, 01:53:00,VALID,916.896,VALID,0,VALID,95.5687,VALID,-0.0679233,VALID,20.127,VALID,119,VALID,1.60621,
2005-04-29, 01:54:00,VALID,916.875,VALID,0,VALID,95.4021,VALID,-0.101885,VALID,20.1338,VALID,162,VALID,1.54129,
2005-04-29, 01:55:00,VALID,916.876,VALID,0,VALID,95.4479,VALID,-0.101885,VALID,20.14,VALID,152,VALID,0.797057,
2005-04-29, 01:56:00,VALID,916.866,VALID,0,VALID,95.7086,VALID,-0.0339617,VALID,20.1402,VALID,125,VALID,0.690234,
2005-04-29, 01:57:00,VALID,916.851,VALID,0,VALID,95.7175,VALID,-0.0849042,VALID,20.127,VALID,200,VALID,1.47104,
2005-04-29, 01:58:00,VALID,916.866,VALID,0,VALID,95.9044,VALID,-0.0849042,VALID,20.1298,VALID,118,VALID,0.993075,
2005-04-29, 01:59:00,VALID,916.878,VALID,0,VALID,95.837,VALID,-0.0849042,VALID,20.1141,VALID,143,VALID,1.42024,
2005-04-29, 02:00:00,VALID,916.869,VALID,0,VALID,95.9209,VALID,-0.0679233,VALID,20.0977,VALID,99,VALID,1.44327,
2005-04-29, 02:01:00,VALID,916.844,VALID,0,VALID,95.9515,VALID,-0.0849042,VALID,20.0851,VALID,127,VALID,1.3576,
2005-04-29, 02:02:00,VALID,916.85,VALID,0,VALID,95.9146,VALID,-0.0849042,VALID,20.0756,VALID,105,VALID,1.97504,
2005-04-29, 02:03:00,VALID,916.813,VALID,0,VALID,95.7505,VALID,-0.101885,VALID,20.0821,VALID,143,VALID,1.73686,
2005-04-29, 02:04:00,VALID,916.83,VALID,0,VALID,95.5992,VALID,-0.101885,VALID,20.0945,VALID,125,VALID,1.22732,
2005-04-29, 02:05:00,VALID,916.828,VALID,0,VALID,95.584,VALID,-0.0509425,VALID,20.1206,VALID,119,VALID,1.4202,
2005-04-29, 02:06:00,VALID,916.798,VALID,0,VALID,95.4644,VALID,0.0169808,VALID,20.1228,VALID,152,VALID,1.57527,
2005-04-29, 02:07:00,VALID,916.774,VALID,0,VALID,95.5064,VALID,0.0169808,VALID,20.1417,VALID,117,VALID,0.926314,
2005-04-29, 02:08:00,VALID,916.734,VALID,0,VALID,95.3665,VALID,0.0509425,VALID,20.1452,VALID,155,VALID,1.34146,
2005-04-29, 02:09:00,VALID,916.732,VALID,0,VALID,95.2673,VALID,0.0679233,VALID,20.1317,VALID,133,VALID,1.42413,
2005-04-29, 02:10:00,VALID,916.689,VALID,0,VALID,94.7218,VALID,0.0339617,VALID,20.1643,VALID,128,VALID,1.32012,
2005-04-29, 02:11:00,VALID,916.659,VALID,0,VALID,94.1458,VALID,0.0339617,VALID,20.2192,VALID,112,VALID,1.94182,
2005-04-29, 02:12:00,VALID,916.653,VALID,0,VALID,94.0847,VALID,0.0339617,VALID,20.3032,VALID,124,VALID,1.80966,
2005-04-29, 02:13:00,VALID,916.634,VALID,0,VALID,94.4128,VALID,0,VALID,20.3061,VALID,162,VALID,1.46454,
2005-04-29, 02:14:00,VALID,916.601,VALID,0,VALID,94.6354,VALID,0.0169808,VALID,20.2805,VALID,176,VALID,1.4632,
2005-04-29, 02:15:00,VALID,916.574,VALID,0,VALID,94.8973,VALID,0,VALID,20.2286,VALID,165,VALID,1.42605,
2005-04-29, 02:16:00,VALID,916.54,VALID,0,VALID,95.1542,VALID,0,VALID,20.1933,VALID,161,VALID,1.73777,
2005-04-29, 02:17:00,VALID,916.536,VALID,0,VALID,95.4047,VALID,0,VALID,20.1454,VALID,149,VALID,1.22199,
2005-04-29, 02:18:00,VALID,916.516,VALID,0,VALID,95.3182,VALID,0,VALID,20.1293,VALID,125,VALID,1.40664,
2005-04-29, 02:19:00,VALID,916.498,VALID,0,VALID,95.4568,VALID,0.0339617,VALID,20.1188,VALID,141,VALID,1.0685,
2005-04-29, 02:20:00,VALID,916.479,VALID,0,VALID,95.4517,VALID,0.0509425,VALID,20.1126,VALID,147,VALID,2.09489,
2005-04-29, 02:21:00,VALID,916.491,VALID,0,VALID,95.322,VALID,0.0169808,VALID,20.1225,VALID,141,VALID,1.97783,
2005-04-29, 02:22:00,VALID,916.478,VALID,0,VALID,95.4708,VALID,0.0339617,VALID,20.1223,VALID,149,VALID,1.45503,
2005-04-29, 02:23:00,VALID,916.471,VALID,0,VALID,95.5013,VALID,0.0339617,VALID,20.1027,VALID,156,VALID,1.33757,
2005-04-29, 02:24:00,VALID,916.447,VALID,0,VALID,95.4733,VALID,0,VALID,20.0863,VALID,162,VALID,1.82599,
2005-04-29, 02:25:00,VALID,916.436,VALID,0,VALID,95.4911,VALID,0.0169808,VALID,20.0967,VALID,143,VALID,1.55291,
2005-04-29, 02:26:00,VALID,916.413,VALID,0,VALID,95.5611,VALID,0.0169808,VALID,20.0768,VALID,157,VALID,1.04931,
2005-04-29, 02:27:00,VALID,916.391,VALID,0,VALID,95.7505,VALID,0.0509425,VALID,20.0669,VALID,157,VALID,0.973474,
2005-04-29, 02:28:00,VALID,916.352,VALID,0,VALID,95.7874,VALID,0.0339617,VALID,20.0381,VALID,150,VALID,0.771723,
2005-04-29, 02:29:00,VALID,916.333,VALID,0,VALID,95.7226,VALID,0.0339617,VALID,20.0254,VALID,135,VALID,0.728338,
2005-04-29, 02:30:00,VALID,916.319,VALID,0,VALID,95.7315,VALID,0,VALID,20.0224,VALID,107,VALID,0.723292,
2005-04-29, 02:31:00,VALID,916.307,VALID,0,VALID,95.603,VALID,0.0169808,VALID,20.0224,VALID,115,VALID,1.50078,
2005-04-29, 02:32:00,VALID,916.305,VALID,0,VALID,95.3424,VALID,0,VALID,20.0194,VALID,155,VALID,1.31105,
2005-04-29, 02:33:00,VALID,916.303,VALID,0,VALID,95.1059,VALID,0.0169808,VALID,20.0448,VALID,114,VALID,1.65439,
2005-04-29, 02:34:00,VALID,916.315,VALID,0,VALID,95.0346,VALID,0.0169808,VALID,20.0736,VALID,108,VALID,0.589658,
2005-04-29, 02:35:00,VALID,916.311,VALID,0,VALID,94.7536,VALID,-0.0169808,VALID,20.0972,VALID,106,VALID,1.11892,
2005-04-29, 02:36:00,VALID,916.319,VALID,0,VALID,94.4446,VALID,-0.0849042,VALID,20.1176,VALID,103,VALID,1.08158,
2005-04-29, 02:37:00,VALID,916.3,VALID,0,VALID,94.1076,VALID,-0.101885,VALID,20.1631,VALID,125,VALID,0.875533,
2005-04-29, 02:38:00,VALID,916.309,VALID,0,VALID,93.9436,VALID,-0.0849042,VALID,20.212,VALID,138,VALID,1.19052,
2005-04-29, 02:39:00,VALID,916.3,VALID,0,VALID,93.73,VALID,-0.0849042,VALID,20.2307,VALID,114,VALID,0.590511,
2005-04-29, 02:40:00,VALID,916.285,VALID,0,VALID,93.7821,VALID,-0.101885,VALID,20.2567,VALID,103,VALID,0.123183,
2005-04-29, 02:41:00,VALID,916.258,VALID,0,VALID,93.6728,VALID,-0.101885,VALID,20.2498,VALID,103,VALID,0.380907,
2005-04-29, 02:42:00,VALID,916.24,VALID,0,VALID,93.7389,VALID,-0.101885,VALID,20.263,VALID,88,VALID,0.322656,
2005-04-29, 02:43:00,VALID,916.219,VALID,0,VALID,93.8648,VALID,-0.0849042,VALID,20.2535,VALID,80,VALID,0.185023,
2005-04-29, 02:44:00,VALID,916.202,VALID,0,VALID,94.1432,VALID,-0.101885,VALID,20.218,VALID,80,VALID,0,
2005-04-29, 02:45:00,VALID,916.187,VALID,0,VALID,94.259,VALID,-0.101885,VALID,20.1827,VALID,80,VALID,0.000190549,
2005-04-29, 02:46:00,VALID,916.164,VALID,0,VALID,94.2348,VALID,-0.101885,VALID,20.1469,VALID,102,VALID,0.309028,
2005-04-29, 02:47:00,VALID,916.176,VALID,0,VALID,93.9207,VALID,-0.0679233,VALID,20.1305,VALID,116,VALID,0.72962,
2005-04-29, 02:48:00,VALID,916.155,VALID,0,VALID,94.0669,VALID,-0.0849042,VALID,20.1432,VALID,92,VALID,0.580729,
2005-04-29, 02:49:00,VALID,916.132,VALID,0,VALID,94.1153,VALID,-0.101885,VALID,20.1469,VALID,92,VALID,0.272507,
2005-04-29, 02:50:00,VALID,916.117,VALID,0,VALID,94.2208,VALID,-0.101885,VALID,20.1238,VALID,127,VALID,0.756479,
2005-04-29, 02:51:00,VALID,916.118,VALID,0,VALID,94.0263,VALID,-0.118866,VALID,20.1111,VALID,142,VALID,0.817769,
2005-04-29, 02:52:00,VALID,916.1,VALID,0,VALID,94.0263,VALID,-0.101885,VALID,20.1211,VALID,155,VALID,0.975,
2005-04-29, 02:53:00,VALID,916.099,VALID,0,VALID,94.0517,VALID,-0.101885,VALID,20.1273,VALID,155,VALID,0.721875,
2005-04-29, 02:54:00,VALID,916.107,VALID,0,VALID,94.5044,VALID,-0.101885,VALID,20.1305,VALID,137,VALID,0.481898,
2005-04-29, 02:55:00,VALID,916.102,VALID,0,VALID,94.2768,VALID,-0.101885,VALID,20.0853,VALID,166,VALID,0.545641,
2005-04-29, 02:56:01,VALID,916.092,VALID,0,VALID,94.3162,VALID,-0.118866,VALID,20.0796,VALID,160,VALID,0.476042,
2005-04-29, 02:57:00,VALID,916.085,VALID,0,VALID,94.6557,VALID,-0.101885,VALID,20.0664,VALID,154,VALID,0.579397,
2005-04-29, 02:58:00,VALID,916.069,VALID,0,VALID,94.6913,VALID,-0.101885,VALID,20.0272,VALID,162,VALID,0.917708,
2005-04-29, 02:59:00,VALID,916.056,VALID,0,VALID,94.704,VALID,-0.0849042,VALID,20.0078,VALID,148,VALID,0.782848,
2005-04-29, 03:00:00,VALID,916.03,VALID,0,VALID,94.7778,VALID,-0.101885,VALID,20.012,VALID,150,VALID,0.816311,
2005-04-29, 03:01:00,VALID,916.014,VALID,0,VALID,94.1776,VALID,-0.101885,VALID,19.9984,VALID,143,VALID,0.826527,
2005-04-29, 03:02:00,VALID,916.013,VALID,0,VALID,94.2157,VALID,-0.101885,VALID,20.0731,VALID,137,VALID,0.984738,
2005-04-29, 03:03:00,VALID,915.962,VALID,0,VALID,93.9563,VALID,-0.101885,VALID,20.0823,VALID,151,VALID,1.26302,
2005-04-29, 03:04:01,VALID,915.938,VALID,0,VALID,93.8101,VALID,-0.0849042,VALID,20.1009,VALID,148,VALID,1.0958,
2005-04-29, 03:05:00,VALID,915.933,VALID,0,VALID,93.9627,VALID,-0.101885,VALID,20.1241,VALID,135,VALID,0.923118,
2005-04-29, 03:06:00,VALID,915.94,VALID,0,VALID,94.0937,VALID,-0.101885,VALID,20.1114,VALID,126,VALID,0.833394,
2005-04-29, 03:07:00,VALID,915.916,VALID,0,VALID,94.1458,VALID,-0.135847,VALID,20.0595,VALID,150,VALID,0.930804,
2005-04-29, 03:08:00,VALID,915.896,VALID,0,VALID,94.3073,VALID,-0.101885,VALID,20.0535,VALID,160,VALID,1.0444,
2005-04-29, 03:09:01,VALID,915.889,VALID,0,VALID,94.1026,VALID,-0.0849042,VALID,20.0277,VALID,154,VALID,1.10671,
2005-04-29, 03:10:00,VALID,915.887,VALID,0,VALID,94.1738,VALID,-0.101885,VALID,20.0463,VALID,152,VALID,0.437881,
2005-04-29, 03:11:00,VALID,915.896,VALID,0,VALID,94.114,VALID,-0.101885,VALID,20.0433,VALID,150,VALID,0.224964,
2005-04-29, 03:12:00,VALID,915.887,VALID,0,VALID,94.2246,VALID,-0.0679233,VALID,20.0436,VALID,182,VALID,0.258371,
2005-04-29, 03:13:00,VALID,915.905,VALID,0,VALID,94.4535,VALID,-0.101885,VALID,20.0274,VALID,182,VALID,0.0363451,
2005-04-29, 03:14:00,VALID,915.907,VALID,0,VALID,94.643,VALID,-0.101885,VALID,19.9949,VALID,182,VALID,0.0400641,
2005-04-29, 03:15:00,VALID,915.901,VALID,0,VALID,94.7256,VALID,-0.101885,VALID,19.9564,VALID,145,VALID,0.787972,
2005-04-29, 03:16:01,VALID,915.892,VALID,0,VALID,94.7028,VALID,-0.101885,VALID,19.9372,VALID,170,VALID,0.874637,
2005-04-29, 03:17:00,VALID,915.875,VALID,0,VALID,94.4586,VALID,-0.101885,VALID,19.9437,VALID,156,VALID,0.757431,
2005-04-29, 03:18:00,VALID,915.864,VALID,0,VALID,94.3187,VALID,-0.101885,VALID,19.9338,VALID,160,VALID,1.20908,
2005-04-29, 03:19:00,VALID,915.849,VALID,0,VALID,93.7249,VALID,-0.101885,VALID,19.9854,VALID,154,VALID,1.42969,
2005-04-29, 03:20:00,VALID,915.858,VALID,0,VALID,93.4044,VALID,-0.101885,VALID,20.0664,VALID,155,VALID,1.03534,
2005-04-29, 03:21:00,VALID,915.854,VALID,0,VALID,93.5316,VALID,-0.101885,VALID,20.1082,VALID,132,VALID,0.472049,
2005-04-29, 03:22:00,VALID,915.822,VALID,0,VALID,93.4311,VALID,-0.0849042,VALID,20.1017,VALID,153,VALID,1.02017,
2005-04-29, 03:23:01,VALID,915.823,VALID,0,VALID,93.4807,VALID,-0.101885,VALID,20.0818,VALID,164,VALID,1.08993,
2005-04-29, 03:24:00,VALID,915.811,VALID,0,VALID,93.4731,VALID,-0.0679233,VALID,20.0856,VALID,165,VALID,0.704241,
2005-04-29, 03:25:01,VALID,915.821,VALID,0,VALID,93.4489,VALID,-0.101885,VALID,20.056,VALID,135,VALID,1.10737,
2005-04-29, 03:26:00,VALID,915.818,VALID,0,VALID,93.3421,VALID,-0.0849042,VALID,20.0657,VALID,136,VALID,1.19017,
2005-04-29, 03:27:00,VALID,915.812,VALID,0,VALID,93.2124,VALID,-0.101885,VALID,20.0955,VALID,128,VALID,0.906432,
2005-04-29, 03:28:00,VALID,915.792,VALID,0,VALID,93.0497,VALID,-0.101885,VALID,20.0985,VALID,143,VALID,0.870384,
2005-04-29, 03:29:01,VALID,915.755,VALID,0,VALID,92.8386,VALID,-0.0849042,VALID,20.1151,VALID,152,VALID,1.14299,
2005-04-29, 03:30:00,VALID,915.728,VALID,0,VALID,92.7635,VALID,-0.101885,VALID,20.1372,VALID,158,VALID,1.06995,
2005-04-29, 03:31:00,VALID,915.721,VALID,0,VALID,92.878,VALID,-0.0849042,VALID,20.1432,VALID,158,VALID,1.09356,